RADUGA 10 [-]

Last updated on Tue Jun 27 2023 00:03:02 GMT+0000 (Coordinated Universal Time)

1 12897U 81102A 23176.94486338 -.00000049 00000+0 00000+0 0 9995 2 12897 9.2286 304.7930 0006584 184.3506 197.1531 1.00248560106507

Satellite not in orbit

RADUGA 10 [-]